Weather History for KFSD - January, 2013

Change the Weather History Date:

Friday, January 4, 2013

  Actual Average Record
Temperature  
Mean Temperature 17 °F 16 °F  
Max Temperature 28 °F 26 °F 54 °F (1916)
Min Temperature 5 °F 7 °F -26 °F (1942)
Degree Days  
Heating Degree Days 48 49  
Month to date heating degree days 197 196  
Since 1 July heating degree days 3137 3329  
Cooling Degree Days 0 0  
Month to date cooling degree days 0 0  
Year to date cooling degree days 0 0  
Moisture  
Dew Point 10 °F    
Average Humidity 73    
Maximum Humidity 96    
Minimum Humidity 50    
Precipitation  
Precipitation 0.00 in 0.02 in 0.60 in (1897)
Month to date precipitation T 0.08  
Year to date precipitation T 0.08  
Snow  
Snow 0.00 in 0.30 in 6.00 in (1897)
Month to date snowfall 0.1 1.0  
Since 1 July snowfall 13.9 17.9  
Snow Depth 3.00 in    
Sea Level Pressure  
Sea Level Pressure 30.18 in    
Wind  
Wind Speed 3 mph (SW)    
Max Wind Speed 12 mph    
Max Gust Speed 16 mph    
Visibility 10 miles    
Events      
T = Trace of Precipitation, MM = Missing Value Source: NWS Daily Summary

Daily Weather History Graph

Daily Weather History Graph

Search for Another Location

Airport or City:

Trip Planner

Search our weather history database for the weather conditions in past years. The results will help you decide how hot, cold, wet, or windy it might be!

Date:

Astronomy

Jan. 04, 2013 Rise Set
Actual Time 8:00 AM CST 5:04 PM CST
Civil Twilight 7:27 AM CST 5:36 PM CST
Nautical Twilight 6:51 AM CST 6:12 PM CST
Astronomical Twilight 6:17 AM CST 6:47 PM CST
Moon No Moon Rise 11:29 AM CST (1/4)
Length of Visible Light 10h 08m
Length of Day
9h 03m
Waning Gibbous, 55% of the Moon is Illuminated
Jan 4
Waning Gibbous
Jan 4
Last Quarter
Jan 11
New
Jan 18
First Quarter
Jan 26
Full

Hourly Weather History & Observations

Time (CST) Temp. Windchill Dew Point Humidity Pressure Visibility Wind Dir Wind Speed Gust Speed Precip Events Conditions
12:56 AM 15.1 °F 7.7 °F 10.9 °F 84% 30.22 in 10.0 mi SW 4.6 mph - N/A   Clear
1:56 AM 18.0 °F 7.7 °F 12.0 °F 78% 30.19 in 10.0 mi SW 8.1 mph - N/A   Clear
2:56 AM 16.0 °F 6.3 °F 10.9 °F 81% 30.20 in 10.0 mi SW 6.9 mph - N/A   Clear
3:56 AM 10.9 °F - 8.1 °F 88% 30.21 in 10.0 mi Calm Calm - N/A   Clear
4:56 AM 14.0 °F 6.5 °F 10.0 °F 84% 30.18 in 10.0 mi Variable 4.6 mph - N/A   Clear
5:56 AM 14.0 °F 5.1 °F 10.0 °F 84% 30.18 in 10.0 mi SW 5.8 mph - N/A   Clear
6:56 AM 10.9 °F - 7.0 °F 84% 30.19 in 10.0 mi Calm Calm - N/A   Clear
7:56 AM 12.0 °F - 8.1 °F 84% 30.19 in 10.0 mi Calm Calm - N/A   Clear
8:56 AM 14.0 °F 6.5 °F 8.1 °F 77% 30.19 in 10.0 mi SW 4.6 mph - N/A   Clear
9:56 AM 17.1 °F 10.0 °F 9.0 °F 71% 30.21 in 10.0 mi WSW 4.6 mph - N/A   Clear
10:56 AM 19.9 °F 13.4 °F 10.0 °F 65% 30.22 in 10.0 mi West 4.6 mph - N/A   Clear
11:56 AM 21.9 °F 13.4 °F 10.9 °F 63% 30.21 in 10.0 mi West 6.9 mph - N/A   Clear
12:56 PM 24.1 °F 19.7 °F 12.0 °F 60% 30.19 in 10.0 mi NW 3.5 mph - N/A   Clear
1:56 PM 26.1 °F - 12.9 °F 58% 30.17 in 10.0 mi Calm Calm - N/A   Clear
2:56 PM 28.0 °F - 12.9 °F 53% 30.17 in 10.0 mi Calm Calm - N/A   Clear
3:36 PM 26.6 °F - 12.2 °F 55% 30.10 in 10.0 mi Calm Calm - N/A   Partly Cloudy
3:56 PM 26.1 °F - 12.0 °F 55% 30.18 in 10.0 mi Calm Calm - N/A   Partly Cloudy
4:56 PM 23.0 °F 18.4 °F 12.9 °F 65% 30.18 in 10.0 mi SSW 3.5 mph - N/A   Clear
5:56 PM 19.9 °F 14.9 °F 12.9 °F 74% 30.18 in 10.0 mi South 3.5 mph - N/A   Clear
6:56 PM 15.1 °F - 10.0 °F 80% 30.19 in 10.0 mi Calm Calm - N/A   Clear
7:56 PM 10.0 °F - 7.0 °F 87% 30.19 in 10.0 mi Calm Calm - N/A   Clear
8:56 PM 9.0 °F - 6.1 °F 88% 30.16 in 10.0 mi Calm Calm - N/A   Clear
9:56 PM 8.1 °F - 5.0 °F 87% 30.14 in 10.0 mi Calm Calm - N/A   Clear
10:56 PM 5.0 °F - 3.0 °F 92% 30.15 in 10.0 mi Calm Calm - N/A   Clear
11:56 PM 6.1 °F - 3.9 °F 91% 30.13 in 10.0 mi Calm Calm - N/A   Clear